KAP494 KMVY-KBOS

Flight info

Callsign KAP494
Flight time N/A
Altitude 6000
Route MVY017 FREDO
Aircraft C404/L-VGD/C

Departure

Time 2026-04-15 21:15
Airport Martha's Vineyard Airport (KMVY)

Arrival

Time N/A
Airport Boston Logan International Airport (KBOS)
Time Latitude Longitude Altitude Speed Heading
2026-04-15 21:11 41.38953 -70.61338 52 ft 0 kts 307°
2026-04-15 21:12 41.39020 -70.61330 60 ft 20 kts 28°
2026-04-15 21:12 41.39154 -70.61188 61 ft 10 kts 43°
2026-04-15 21:12 41.39169 -70.61171 57 ft 12 kts 41°
2026-04-15 21:13 41.39316 -70.61001 59 ft 40 kts 40°
2026-04-15 21:13 41.39537 -70.60747 67 ft 45 kts 41°
2026-04-15 21:13 41.39702 -70.60566 70 ft 18 kts 37°
2026-04-15 21:13 41.39745 -70.60551 68 ft 0 kts 324°
2026-04-15 21:14 41.39788 -70.60604 67 ft 12 kts 298°
2026-04-15 21:14 41.39777 -70.60670 69 ft 13 kts 224°
2026-04-15 21:14 41.39556 -70.60926 69 ft 71 kts 220°
2026-04-15 21:15 41.39112 -70.61471 220 ft 98 kts 226°
2026-04-15 21:15 41.38594 -70.62155 510 ft 110 kts 222°
2026-04-15 21:15 41.38031 -70.62882 877 ft 114 kts 226°
2026-04-15 21:15 41.37469 -70.63664 1206 ft 117 kts 228°
2026-04-15 21:16 41.36944 -70.64473 1622 ft 111 kts 235°
2026-04-15 21:16 41.36652 -70.65368 2037 ft 107 kts 261°
2026-04-15 21:16 41.36883 -70.66395 2132 ft 135 kts 298°
2026-04-15 21:16 41.37692 -70.67267 2134 ft 165 kts 324°
2026-04-15 21:17 41.38877 -70.67606 2228 ft 185 kts 352°
2026-04-15 21:17 41.40164 -70.67291 2421 ft 186 kts 358°
2026-04-15 21:17 41.41428 -70.67189 2737 ft 179 kts 355°
2026-04-15 21:17 41.42649 -70.66980 3076 ft 175 kts
2026-04-15 21:18 41.43828 -70.66684 3418 ft 170 kts
2026-04-15 21:18 41.44980 -70.66392 3767 ft 166 kts
2026-04-15 21:18 41.46107 -70.66133 4112 ft 163 kts 359°
2026-04-15 21:18 41.47213 -70.65905 4408 ft 164 kts 358°
2026-04-15 21:19 41.48357 -70.65690 4658 ft 168 kts 358°
2026-04-15 21:19 41.49520 -70.65479 4895 ft 170 kts 357°
2026-04-15 21:19 41.50695 -70.65267 5138 ft 171 kts 357°
2026-04-15 21:19 41.51876 -70.65058 5387 ft 172 kts 357°
2026-04-15 21:20 41.53071 -70.64846 5635 ft 174 kts 357°
2026-04-15 21:20 41.54274 -70.64635 5883 ft 175 kts 357°
2026-04-15 21:20 41.55505 -70.64422 5974 ft 184 kts 358°
2026-04-15 21:20 41.56809 -70.64199 5993 ft 193 kts 358°
2026-04-15 21:21 41.58165 -70.63959 6004 ft 200 kts 358°
2026-04-15 21:21 41.59561 -70.63711 6006 ft 204 kts 359°
2026-04-15 21:21 41.60974 -70.63460 6009 ft 206 kts 359°
2026-04-15 21:21 41.62404 -70.63205 6005 ft 207 kts 359°
2026-04-15 21:22 41.63832 -70.62949 6003 ft 207 kts 359°
2026-04-15 21:22 41.65259 -70.62696 6010 ft 207 kts 359°
2026-04-15 21:22 41.66692 -70.62443 6008 ft 208 kts 359°
2026-04-15 21:22 41.68131 -70.62188 6006 ft 207 kts 359°
2026-04-15 21:23 41.69562 -70.61935 6010 ft 207 kts 359°
2026-04-15 21:23 41.70977 -70.61686 6013 ft 208 kts 359°
2026-04-15 21:23 41.72412 -70.61434 6011 ft 208 kts 359°
2026-04-15 21:23 41.73849 -70.61177 6007 ft 208 kts 359°
2026-04-15 21:24 41.75287 -70.60923 6008 ft 208 kts 359°
2026-04-15 21:24 41.76721 -70.60671 6019 ft 208 kts 359°
2026-04-15 21:24 41.78153 -70.60417 6008 ft 208 kts 359°
2026-04-15 21:24 41.79589 -70.60165 5980 ft 208 kts 359°
2026-04-15 21:25 41.81029 -70.59911 5977 ft 209 kts 359°
2026-04-15 21:25 41.82471 -70.59656 5973 ft 209 kts 359°
2026-04-15 21:25 41.83911 -70.59400 5969 ft 208 kts 359°
2026-04-15 21:25 41.85345 -70.59146 5974 ft 208 kts 359°
2026-04-15 21:26 41.86784 -70.58890 5974 ft 208 kts 359°
2026-04-15 21:26 41.88222 -70.58634 5973 ft 208 kts 359°
2026-04-15 21:26 41.89633 -70.58628 5971 ft 195 kts 334°
2026-04-15 21:26 41.90624 -70.59686 5974 ft 180 kts 301°
2026-04-15 21:27 41.91264 -70.61115 5976 ft 178 kts 293°
2026-04-15 21:27 41.91795 -70.62609 5970 ft 177 kts 291°
2026-04-15 21:27 41.92310 -70.64113 5972 ft 177 kts 291°
2026-04-15 21:27 41.92825 -70.65590 5973 ft 177 kts 291°
2026-04-15 21:28 41.93374 -70.67095 5971 ft 178 kts 292°
2026-04-15 21:28 41.93933 -70.68552 5972 ft 178 kts 293°
2026-04-15 21:28 41.94516 -70.70020 5972 ft 178 kts 294°
2026-04-15 21:28 41.95107 -70.71486 5974 ft 178 kts 294°
2026-04-15 21:29 41.95702 -70.72950 5971 ft 179 kts 294°
2026-04-15 21:29 41.96298 -70.74414 5971 ft 178 kts 294°
2026-04-15 21:29 41.96893 -70.75874 5971 ft 178 kts 294°
2026-04-15 21:29 41.97487 -70.77333 5963 ft 178 kts 294°
2026-04-15 21:30 41.98096 -70.78834 5733 ft 187 kts 294°
2026-04-15 21:30 41.98728 -70.80386 5488 ft 190 kts 294°
2026-04-15 21:30 41.99368 -70.81954 5244 ft 192 kts 294°
2026-04-15 21:30 42.00005 -70.83511 4998 ft 188 kts 294°
2026-04-15 21:31 42.01256 -70.86585 4530 ft 188 kts 294°
2026-04-15 21:31 42.01884 -70.88132 4280 ft 189 kts 294°
2026-04-15 21:32 42.03132 -70.91204 3994 ft 181 kts 294°
2026-04-15 21:32 42.03728 -70.92664 3982 ft 176 kts 295°
2026-04-15 21:32 42.04321 -70.94096 3976 ft 174 kts 295°
2026-04-15 21:32 42.04911 -70.95516 3970 ft 173 kts 295°
2026-04-15 21:33 42.05498 -70.96927 3968 ft 172 kts 295°
2026-04-15 21:33 42.06087 -70.98332 3965 ft 172 kts 295°
2026-04-15 21:33 42.06676 -70.99734 3965 ft 172 kts 295°
2026-04-15 21:33 42.07265 -71.01135 3964 ft 172 kts 295°
2026-04-15 21:34 42.07852 -71.02533 3964 ft 171 kts 295°
2026-04-15 21:34 42.08438 -71.03928 3964 ft 171 kts 295°
2026-04-15 21:34 42.09023 -71.05325 3965 ft 171 kts 295°
2026-04-15 21:34 42.09606 -71.06719 3965 ft 171 kts 295°
2026-04-15 21:35 42.10191 -71.08116 3968 ft 171 kts 296°
2026-04-15 21:35 42.11106 -71.09126 3966 ft 185 kts 343°
2026-04-15 21:35 42.12341 -71.08599 3969 ft 198 kts 38°
2026-04-15 21:35 42.12932 -71.06935 4012 ft 197 kts 55°
2026-04-15 21:36 42.14004 -71.06020 3630 ft 189 kts 356°
2026-04-15 21:36 42.15344 -71.06114 3171 ft 191 kts 347°
2026-04-15 21:36 42.16660 -71.06494 2528 ft 198 kts 340°
2026-04-15 21:36 42.17931 -71.07048 2425 ft 179 kts 338°
2026-04-15 21:37 42.19043 -71.07599 2303 ft 171 kts 334°
2026-04-15 21:37 42.20166 -71.08215 1954 ft 177 kts 342°
2026-04-15 21:37 42.21389 -71.08133 1782 ft 184 kts 26°
2026-04-15 21:37 42.22506 -71.07323 1626 ft 179 kts 30°
2026-04-15 21:38 42.23476 -71.06760 1726 ft 119 kts 13°
2026-04-15 21:38 42.24222 -71.06418 1676 ft 113 kts 29°
2026-04-15 21:38 42.24959 -71.05996 1571 ft 117 kts 21°
2026-04-15 21:38 42.25715 -71.05711 1535 ft 110 kts 14°
2026-04-15 21:39 42.26424 -71.05440 1573 ft 104 kts 21°
2026-04-15 21:39 42.27080 -71.05075 1588 ft 103 kts 27°
2026-04-15 21:39 42.27762 -71.04680 1584 ft 109 kts 27°
2026-04-15 21:39 42.28493 -71.04315 1515 ft 113 kts 21°
2026-04-15 21:40 42.29268 -71.03974 1346 ft 119 kts 23°
2026-04-15 21:40 42.30043 -71.03574 1184 ft 118 kts 25°
2026-04-15 21:40 42.30820 -71.03303 1051 ft 117 kts 20°
2026-04-15 21:40 42.31591 -71.02965 874 ft 113 kts 28°
2026-04-15 21:41 42.32296 -71.02570 729 ft 111 kts 25°
2026-04-15 21:41 42.33022 -71.02304 561 ft 105 kts 20°
2026-04-15 21:41 42.33690 -71.02024 458 ft 93 kts 36°
2026-04-15 21:41 42.34242 -71.01577 292 ft 93 kts 43°
2026-04-15 21:42 42.34692 -71.00943 174 ft 88 kts 49°
2026-04-15 21:42 42.35020 -71.00335 214 ft 78 kts 65°
2026-04-15 21:42 42.35213 -70.99684 262 ft 70 kts 53°
2026-04-15 21:42 42.35552 -70.99201 268 ft 69 kts 31°
2026-04-15 21:43 42.35941 -70.98821 411 ft 67 kts 36°
2026-04-15 21:43 42.36375 -70.98640 564 ft 73 kts 356°
2026-04-15 21:43 42.36866 -70.98804 743 ft 77 kts 354°
2026-04-15 21:43 42.37348 -70.99058 914 ft 78 kts 326°
2026-04-15 21:44 42.37691 -70.99668 1062 ft 78 kts 298°